Syracuse, NY

5:53 AM EST on December 10, 2019 (GMT -0500)
Syracuse Hancock International

Weather History for KSYR - October, 2019

Change the Weather History Date:

Tuesday, October 8, 2019

  Actual Average Record
Temperature  
Mean Temperature 55 °F 53 °F  
Max Temperature 66 °F 63 °F 83 °F (1916)
Min Temperature 44 °F 44 °F 25 °F (1964)
Degree Days  
Heating Degree Days 10 12  
Month to date heating degree days 76 87  
Since 1 July heating degree days 151 254  
Cooling Degree Days 0 0  
Month to date cooling degree days 11 0  
Year to date cooling degree days 622 565  
Growing Degree Days 5 (Base 50)    
Moisture  
Dew Point 45 °F    
Average Humidity 78    
Maximum Humidity 96    
Minimum Humidity 36    
Precipitation  
Precipitation 0.00 in 0.11 in 1.57 in (1903)
Month to date precipitation 1.57 0.92  
Year to date precipitation 35.70 29.20  
Snow  
Snow 0.00 in 0.00 in 0.20 in (2001)
Month to date snowfall 0.0 0.0  
Since 1 July snowfall T 0.0  
Since 1 September snowfall T 0.0  
Snow Depth 0.00 in    
Sea Level Pressure  
Sea Level Pressure 30.28 in    
Wind  
Wind Speed 2 mph ()    
Max Wind Speed 10 mph    
Max Gust Speed 12 mph    
Visibility 7.0 miles    
Events Fog    
T = Trace of Precipitation, MM = Missing Value Source: Averaged Metar Reports

Daily Weather History Graph

Daily Weather History Graph

Search for Another Location

Airport or City:

Astronomy

Oct. 08, 2019 Rise Set
Actual Time 7:09 AM EDT 6:33 PM EDT
Civil Twilight 6:41 AM EDT 7:02 PM EDT
Nautical Twilight 6:08 AM EDT 7:35 PM EDT
Astronomical Twilight 5:35 AM EDT 8:08 PM EDT
Moon 4:41 PM EDT (10/8) 1:46 AM EDT (10/8)
Length of Visible Light 12h 21m
Length of Day
11h 24m
Waxing Gibbous, 77% of the Moon is Illuminated
Oct 8
Waxing Gibbous
Oct 13
Full
Oct 21
Last Quarter
Oct 27
New
Nov 4
First Quarter

Hourly Weather History & Observations

Time (EDT) Temp. Windchill Dew Point Humidity Pressure Visibility Wind Dir Wind Speed Gust Speed Precip Events Conditions
12:54 AM 54.0 °F - 51.1 °F 90% 30.21 in 10.0 mi West 3.5 mph - N/A   Overcast
1:54 AM 54.0 °F - 50.0 °F 86% 30.22 in 10.0 mi West 3.5 mph - N/A   Overcast
2:54 AM 52.0 °F - 50.0 °F 93% 30.23 in 10.0 mi Calm Calm - N/A   Mostly Cloudy
3:54 AM 50.0 °F - 48.0 °F 93% 30.23 in 4.0 mi Calm Calm - N/A   Scattered Clouds
3:58 AM 50.0 °F - 48.0 °F 93% 30.24 in 2.5 mi Calm Calm - N/A   Scattered Clouds
4:20 AM 48.9 °F - 46.9 °F 93% 30.25 in 1.0 mi Calm Calm - N/A   Scattered Clouds
4:39 AM 48.9 °F - 46.9 °F 93% 30.26 in 0.8 mi Calm Calm - N/A   Mist
4:54 AM 48.9 °F - 46.9 °F 93% 30.26 in 0.8 mi Calm Calm - N/A   Mist
5:36 AM 46.0 °F - 45.0 °F 96% 30.28 in 0.5 mi Calm Calm - N/A Fog Fog
5:46 AM 46.0 °F - 44.1 °F 93% 30.28 in 0.5 mi Calm Calm - N/A Fog Fog
5:54 AM 46.0 °F - 44.1 °F 93% 30.28 in 0.5 mi Calm Calm - N/A Fog Fog
6:21 AM 45.0 °F - 43.0 °F 93% 30.30 in 0.8 mi Calm Calm - N/A   Scattered Clouds
6:54 AM 46.0 °F - 44.1 °F 93% 30.31 in 0.5 mi Calm Calm - N/A Fog Fog
7:54 AM 45.0 °F 42.6 °F 43.0 °F 93% 30.32 in 7.0 mi East 4.6 mph - N/A Fog Patches of Fog
8:54 AM 48.0 °F - 46.9 °F 96% 30.33 in 10.0 mi Calm Calm - N/A   Scattered Clouds
9:54 AM 54.0 °F - 50.0 °F 86% 30.33 in 10.0 mi Calm Calm - N/A   Scattered Clouds
10:54 AM 59.0 °F - 48.0 °F 67% 30.32 in 10.0 mi Calm Calm - N/A   Scattered Clouds
11:54 AM 62.1 °F - 43.0 °F 50% 30.32 in 10.0 mi Calm Calm - N/A   Scattered Clouds
12:54 PM 64.0 °F - 44.1 °F 48% 30.32 in 10.0 mi Variable 6.9 mph - N/A   Scattered Clouds
1:54 PM 64.9 °F - 42.1 °F 43% 30.30 in 10.0 mi Variable 4.6 mph - N/A   Scattered Clouds
2:54 PM 64.9 °F - 37.9 °F 37% 30.29 in 10.0 mi NNE 3.5 mph - N/A   Scattered Clouds
3:54 PM 64.9 °F - 37.0 °F 36% 30.28 in 10.0 mi Calm Calm - N/A   Scattered Clouds
4:54 PM 64.0 °F - 39.0 °F 40% 30.27 in 10.0 mi NNW 8.1 mph - N/A   Scattered Clouds
5:54 PM 61.0 °F - 43.0 °F 52% 30.28 in 10.0 mi NNW 6.9 mph - N/A   Mostly Cloudy
6:54 PM 55.0 °F - 43.0 °F 64% 30.29 in 10.0 mi NNW 5.8 mph - N/A   Scattered Clouds
7:54 PM 53.1 °F - 43.0 °F 69% 30.29 in 10.0 mi NW 3.5 mph - N/A   Scattered Clouds
8:54 PM 50.0 °F - 45.0 °F 83% 30.30 in 10.0 mi Calm Calm - N/A   Partly Cloudy
9:54 PM 48.0 °F - 44.1 °F 86% 30.31 in 10.0 mi Calm Calm - N/A   Partly Cloudy
10:54 PM 46.0 °F 43.9 °F 43.0 °F 89% 30.31 in 10.0 mi SSE 4.6 mph - N/A   Clear
11:54 PM 46.0 °F 44.8 °F 43.0 °F 89% 30.30 in 10.0 mi SE 3.5 mph - N/A   Partly Cloudy